Location: Grantsboro
(35.1404°N, 76.8424°W)
Time: 12:43:08
(UTC+00:00)

STARLINK-77 - Pass Details

Date: 18 January 2020
Orbit: 528 x 531 km, 53.0° (Epoch: 17 February)

Event Time Altitude Azimuth Distance (km) Brightness Sun altitude
Exits shadow 09:38:52 - 153° (SSE) 1,891 6.7 -31.5°
Reaches altitude 10° 09:39:41 10° 143° (SE) 1,759 6.6 -31.3°
Drops below altitude 10° 09:42:21 10° 103° (ESE) 1,762 7.1 -30.8°
Enters shadow 10:49:39 -53° 226° (SW) 10,796 10.1 -17.2°
Maximum altitude 11:19:34 71° 316° (NW) 557 3.4 -11.3°
